TimeMST,TemperatureF,Dew PointF,Humidity,Sea Level PressureIn,VisibilityMPH,Wind Direction,Wind SpeedMPH,Gust SpeedMPH,PrecipitationIn,Events,Conditions,WindDirDegrees,DateUTC
12:53 AM,16.0,14.0,92,30.21,3.0,SW,9.2,-,N/A,,Scattered Clouds,230,2013-02-11 07:53:00
1:53 AM,15.1,10.9,84,30.20,10.0,WSW,15.0,-,N/A,,Clear,240,2013-02-11 08:53:00
2:53 AM,12.9,9.0,84,30.19,10.0,WSW,17.3,-,N/A,,Clear,240,2013-02-11 09:53:00
3:53 AM,12.9,9.0,84,30.17,10.0,WSW,21.9,-,N/A,,Clear,240,2013-02-11 10:53:00
4:53 AM,14.0,8.6,79,30.00,10.0,WSW,20.7,-,N/A,,Clear,240,2013-02-11 11:53:00
5:53 AM,14.0,8.1,77,30.15,10.0,WSW,20.7,-,N/A,,Clear,240,2013-02-11 12:53:00
6:53 AM,14.0,8.1,77,30.14,10.0,WSW,24.2,31.1,N/A,,Clear,240,2013-02-11 13:53:00
7:53 AM,16.0,9.0,74,30.13,10.0,WSW,23.0,29.9,N/A,,Clear,240,2013-02-11 14:53:00
8:53 AM,17.1,10.0,74,30.13,10.0,WSW,21.9,27.6,N/A,,Clear,240,2013-02-11 15:53:00
9:53 AM,21.0,10.9,65,30.11,10.0,WSW,25.3,34.5,N/A,,Clear,240,2013-02-11 16:53:00
10:53 AM,24.1,12.0,60,30.10,10.0,WSW,21.9,32.2,N/A,,Clear,240,2013-02-11 17:53:00
11:53 AM,25.0,14.0,63,30.09,10.0,WSW,24.2,-,N/A,,Clear,240,2013-02-11 18:53:00
12:53 PM,28.0,15.1,58,30.06,10.0,WSW,25.3,33.4,N/A,,Clear,240,2013-02-11 19:53:00
1:53 PM,30.0,15.1,54,30.04,10.0,WSW,26.5,33.4,N/A,,Clear,240,2013-02-11 20:53:00
2:53 PM,28.9,14.0,54,30.05,10.0,WSW,25.3,31.1,N/A,,Scattered Clouds,240,2013-02-11 21:53:00
3:53 PM,28.9,14.0,54,30.04,10.0,WSW,25.3,-,N/A,,Scattered Clouds,240,2013-02-11 22:53:00
4:53 PM,28.0,14.0,56,30.04,10.0,WSW,24.2,32.2,N/A,,Partly Cloudy,240,2013-02-11 23:53:00
5:53 PM,25.0,12.9,60,30.04,10.0,WSW,23.0,-,N/A,,Partly Cloudy,240,2013-02-12 00:53:00
6:53 PM,24.1,12.0,60,30.06,10.0,WSW,23.0,-,N/A,,Clear,240,2013-02-12 01:53:00
7:53 PM,24.1,10.0,55,30.07,10.0,WSW,21.9,-,N/A,,Clear,240,2013-02-12 02:53:00
8:53 PM,24.1,10.0,55,30.08,10.0,WSW,20.7,-,N/A,,Clear,240,2013-02-12 03:53:00
9:53 PM,24.1,10.0,55,30.09,10.0,SW,18.4,-,N/A,,Scattered Clouds,230,2013-02-12 04:53:00
10:53 PM,23.0,10.0,58,30.07,10.0,SW,18.4,-,N/A,,Partly Cloudy,230,2013-02-12 05:53:00
11:53 PM,23.0,9.0,55,30.09,10.0,SW,17.3,-,N/A,,Clear,230,2013-02-12 06:53:00